MUOS-2

Last updated on Wed Sep 17 2025 00:02:48 GMT+0000 (Coordinated Universal Time)

1 39206U 13036A 25259.54871852 .00000048 00000+0 00000+0 0 9996 2 39206 4.4535 44.6825 0055364 177.2028 154.3688 1.00272423 44444
UTC large
Height (km)
Speed (km/s)
/
Latitude / Longitude
Inclination (degrees)
Orbital Period (minutes)
Azimuth
Elevation
Range (km)
Doppler Factor

Next 0 passes for location: London (51.5072 / 0.1276)

Sorry there are no passes over London.